Bradshaw AFB, HI

4:35 AM HST on December 07, 2019 (GMT -1000)
Bradshaw Army Air Field

Weather History for PHSF - November, 2019

Change the Weather History Date:

Wednesday, November 20, 2019

  Actual Average Record
Temperature  
Mean Temperature 58 °F -  
Max Temperature 70 °F 65 °F 78 °F (2001)
Min Temperature 46 °F 46 °F 31 °F (2017)
Degree Days  
Heating Degree Days 7    
Growing Degree Days 8 (Base 50)    
Moisture  
Dew Point 48 °F    
Average Humidity 74    
Maximum Humidity 95    
Minimum Humidity 49    
Precipitation  
Precipitation 0.00 in - - ()
Sea Level Pressure  
Sea Level Pressure 29.99 in    
Wind  
Wind Speed 8 mph (South)    
Max Wind Speed 15 mph    
Max Gust Speed 22 mph    
Visibility 10 miles    
Events      
Averages and records for this station are not official NWS values.
T = Trace of Precipitation, MM = Missing Value Source: NWS Daily Summary

Daily Weather History Graph

Daily Weather History Graph

Search for Another Location

Airport or City:

Astronomy

Nov. 20, 2019 Rise Set
Actual Time 6:33 AM HST 5:41 PM HST
Civil Twilight 6:10 AM HST 6:05 PM HST
Nautical Twilight 5:43 AM HST 6:32 PM HST
Astronomical Twilight 5:16 AM HST 6:58 PM HST
Moon 12:39 AM HST (11/20) 1:42 PM HST (11/20)
Length of Visible Light 11h 55m
Length of Day
11h 08m
Last Quarter, 38% of the Moon is Illuminated
Nov 20
Last Quarter
Nov 26
New
Dec 3
First Quarter
Dec 11
Full
Dec 18
Last Quarter

Hourly Weather History & Observations

Time (HST) Temp. Windchill Dew Point Humidity Pressure Visibility Wind Dir Wind Speed Gust Speed Precip Events Conditions
12:58 AM 48.4 °F - 47.1 °F 95% 29.99 in 10.0 mi SSE 5.8 mph - N/A   Clear
1:58 AM 48.9 °F - 42.1 °F 77% 29.99 in 10.0 mi Calm Calm - N/A   Clear
2:58 AM 49.1 °F - 45.5 °F 87% 29.98 in 10.0 mi SSE 8.1 mph - N/A   Clear
3:58 AM 47.7 °F - 45.1 °F 91% 29.96 in 10.0 mi South 10.4 mph - N/A   Clear
4:58 AM 46.2 °F 42.7 °F 42.1 °F 85% 29.97 in 10.0 mi SSE 6.9 mph - N/A   Clear
5:58 AM 48.2 °F - 40.8 °F 76% 30.02 in 10.0 mi Calm Calm - N/A   Clear
6:58 AM 50.0 °F - 41.0 °F 71% 30.03 in 8.0 mi ESE 6.9 mph - N/A   Clear
7:58 AM 59.0 °F - 49.6 °F 71% 30.01 in 10.0 mi South 8.1 mph - N/A   Clear
8:58 AM 63.1 °F - 52.9 °F 69% 30.02 in 10.0 mi South 9.2 mph 17.3 mph N/A   Clear
9:58 AM 66.9 °F - 52.2 °F 59% 30.01 in 10.0 mi South 11.5 mph 20.7 mph N/A   Clear
10:58 AM 67.6 °F - 52.7 °F 59% 30.00 in 10.0 mi SSW 15.0 mph 21.9 mph N/A   Clear
11:58 AM 69.6 °F - 52.3 °F 54% 29.99 in 10.0 mi SW 13.8 mph 18.4 mph N/A   Scattered Clouds
12:58 PM 70.3 °F - 50.4 °F 49% 29.94 in 10.0 mi SSW 13.8 mph 21.9 mph N/A   Clear
1:58 PM 69.4 °F - 52.9 °F 56% 29.94 in 10.0 mi SSW 13.8 mph 21.9 mph N/A   Partly Cloudy
2:58 PM 70.5 °F - 51.8 °F 51% 29.92 in 10.0 mi SSW 9.2 mph 16.1 mph N/A   Partly Cloudy
3:58 PM 66.0 °F - 51.4 °F 59% 29.96 in 9.0 mi SSW 10.4 mph - N/A   Partly Cloudy
4:58 PM 60.1 °F - 50.4 °F 70% 30.01 in 9.0 mi South 10.4 mph - N/A   Clear
5:58 PM 55.4 °F - 50.0 °F 82% 30.02 in 9.0 mi South 11.5 mph - N/A   Clear
6:58 PM 53.6 °F - 48.2 °F 82% 30.04 in 10.0 mi SSE 10.4 mph - N/A   Clear
7:58 PM 51.8 °F - 45.5 °F 79% 30.02 in 10.0 mi SE 4.6 mph - N/A   Clear
8:58 PM 51.6 °F - 46.2 °F 82% 30.00 in 9.0 mi SSE 11.5 mph - N/A   Clear
9:58 PM 52.5 °F - 48.9 °F 88% 30.00 in 10.0 mi SSE 9.2 mph - N/A   Clear
10:58 PM 51.4 °F - 47.1 °F 85% 29.98 in 10.0 mi SSE 5.8 mph - N/A   Clear
11:58 PM 50.0 °F - 46.8 °F 89% 29.99 in 10.0 mi SSE 8.1 mph - N/A   Clear